TSC890 CYYZ-KBOS

Flight info

Callsign TSC890
Flight time 1h 6m
Altitude 33000
Route KEPTA3 BMPAH DCT AEVON DCT HANKK DCT PONCT JFUND2
Aircraft A21N/M-SDE2E3FGHIRWXY/LB1

Departure

Time 2026-05-06 01:15
Airport Toronto Pearson International Airport (CYYZ)

Arrival

Time 2026-05-06 02:22
Airport Boston Logan International Airport (KBOS)
Time Latitude Longitude Altitude Speed Heading
2026-05-06 00:52 43.68502 -79.62288 569 ft 0 kts 318°
2026-05-06 01:02 43.68489 -79.62271 574 ft 3 kts 318°
2026-05-06 01:02 43.68474 -79.62254 569 ft 3 kts 318°
2026-05-06 01:02 43.68460 -79.62237 567 ft 3 kts 307°
2026-05-06 01:03 43.68456 -79.62213 575 ft 3 kts 246°
2026-05-06 01:03 43.68459 -79.62204 570 ft 0 kts 226°
2026-05-06 01:05 43.68448 -79.62221 568 ft 5 kts 226°
2026-05-06 01:05 43.68414 -79.62270 571 ft 9 kts 227°
2026-05-06 01:05 43.68369 -79.62336 572 ft 9 kts 226°
2026-05-06 01:06 43.68319 -79.62379 572 ft 9 kts 191°
2026-05-06 01:06 43.68259 -79.62427 572 ft 11 kts 226°
2026-05-06 01:06 43.68201 -79.62498 572 ft 11 kts 197°
2026-05-06 01:06 43.68134 -79.62450 572 ft 13 kts 136°
2026-05-06 01:07 43.68053 -79.62343 567 ft 19 kts 136°
2026-05-06 01:07 43.67957 -79.62219 566 ft 19 kts 137°
2026-05-06 01:07 43.67850 -79.62140 570 ft 17 kts 148°
2026-05-06 01:07 43.67767 -79.62039 574 ft 14 kts 136°
2026-05-06 01:08 43.67698 -79.61947 575 ft 14 kts 137°
2026-05-06 01:08 43.67626 -79.61854 573 ft 14 kts 137°
2026-05-06 01:08 43.67556 -79.61762 571 ft 14 kts 136°
2026-05-06 01:08 43.67478 -79.61661 567 ft 17 kts 137°
2026-05-06 01:09 43.67390 -79.61547 565 ft 18 kts 136°
2026-05-06 01:09 43.67294 -79.61422 563 ft 20 kts 136°
2026-05-06 01:09 43.67195 -79.61292 563 ft 19 kts 136°
2026-05-06 01:09 43.67147 -79.61163 570 ft 14 kts 58°
2026-05-06 01:10 43.67214 -79.61060 568 ft 15 kts 46°
2026-05-06 01:10 43.67285 -79.60957 574 ft 15 kts 46°
2026-05-06 01:10 43.67355 -79.60855 567 ft 15 kts 46°
2026-05-06 01:10 43.67429 -79.60747 570 ft 15 kts 46°
2026-05-06 01:11 43.67496 -79.60650 578 ft 14 kts 46°
2026-05-06 01:11 43.67613 -79.60480 574 ft 28 kts 46°
2026-05-06 01:11 43.67745 -79.60287 578 ft 27 kts 46°
2026-05-06 01:11 43.67875 -79.60100 579 ft 27 kts 46°
2026-05-06 01:12 43.67986 -79.59938 577 ft 20 kts 47°
2026-05-06 01:12 43.68028 -79.59838 578 ft 7 kts 96°
2026-05-06 01:12 43.68015 -79.59807 583 ft 1 kts 130°
2026-05-06 01:12 43.68012 -79.59802 583 ft 2 kts 135°
2026-05-06 01:13 43.68005 -79.59793 582 ft 3 kts 136°
2026-05-06 01:13 43.67980 -79.59761 581 ft 7 kts 136°
2026-05-06 01:13 43.67930 -79.59717 582 ft 10 kts 171°
2026-05-06 01:14 43.67817 -79.59858 581 ft 21 kts 226°
2026-05-06 01:14 43.67552 -79.60243 583 ft 88 kts 227°
2026-05-06 01:14 43.66962 -79.61104 582 ft 157 kts 228°
2026-05-06 01:15 43.66144 -79.62318 879 ft 180 kts 229°
2026-05-06 01:15 43.65246 -79.63652 1338 ft 203 kts 227°
2026-05-06 01:15 43.64186 -79.65140 1757 ft 231 kts 225°
2026-05-06 01:15 43.62992 -79.66733 2456 ft 242 kts 225°
2026-05-06 01:16 43.61776 -79.68362 3188 ft 251 kts 225°
2026-05-06 01:16 43.60510 -79.70069 3926 ft 256 kts 226°
2026-05-06 01:16 43.59232 -79.71802 4764 ft 258 kts 228°
2026-05-06 01:16 43.57920 -79.73477 5694 ft 256 kts 221°
2026-05-06 01:17 43.56382 -79.74671 6712 ft 254 kts 205°
2026-05-06 01:17 43.54647 -79.75049 7793 ft 258 kts 185°
2026-05-06 01:17 43.52865 -79.74370 8579 ft 281 kts 158°
2026-05-06 01:17 43.51417 -79.72401 9246 ft 310 kts 127°
2026-05-06 01:18 43.50721 -79.69495 9921 ft 329 kts 105°
2026-05-06 01:18 43.50412 -79.66319 10400 ft 343 kts 102°
2026-05-06 01:18 43.50111 -79.62961 10664 ft 363 kts 102°
2026-05-06 01:18 43.49756 -79.59415 10923 ft 382 kts 103°
2026-05-06 01:19 43.49353 -79.55721 11312 ft 395 kts 104°
2026-05-06 01:19 43.48924 -79.51955 11949 ft 401 kts 104°
2026-05-06 01:19 43.48479 -79.48144 12640 ft 405 kts 105°
2026-05-06 01:19 43.48029 -79.44354 13326 ft 408 kts 105°
2026-05-06 01:20 43.47563 -79.40487 13918 ft 413 kts 105°
2026-05-06 01:20 43.47087 -79.36562 14491 ft 417 kts 105°
2026-05-06 01:20 43.46607 -79.32618 15115 ft 420 kts 105°
2026-05-06 01:20 43.46120 -79.28633 15732 ft 423 kts 105°
2026-05-06 01:21 43.45628 -79.24629 16343 ft 426 kts 105°
2026-05-06 01:21 43.45132 -79.20602 16933 ft 429 kts 106°
2026-05-06 01:21 43.44628 -79.16531 17520 ft 432 kts 106°
2026-05-06 01:21 43.44110 -79.12448 18083 ft 432 kts 110°
2026-05-06 01:22 43.43056 -79.08631 18551 ft 425 kts 121°
2026-05-06 01:22 43.41848 -79.04894 18989 ft 429 kts 122°
2026-05-06 01:22 43.40618 -79.01139 19485 ft 431 kts 121°
2026-05-06 01:22 43.39394 -78.97349 19934 ft 435 kts 121°
2026-05-06 01:23 43.38175 -78.93523 20363 ft 439 kts 121°
2026-05-06 01:23 43.36960 -78.89673 20793 ft 442 kts 121°
2026-05-06 01:23 43.35751 -78.85827 21210 ft 446 kts 121°
2026-05-06 01:23 43.34517 -78.81894 21633 ft 449 kts 121°
2026-05-06 01:24 43.33275 -78.77933 22042 ft 452 kts 121°
2026-05-06 01:24 43.32026 -78.73953 22444 ft 456 kts 121°
2026-05-06 01:24 43.30766 -78.69944 22860 ft 459 kts 121°
2026-05-06 01:24 43.29498 -78.65910 23273 ft 461 kts 121°
2026-05-06 01:25 43.28219 -78.61850 23679 ft 463 kts 121°
2026-05-06 01:25 43.26936 -78.57783 23993 ft 466 kts 121°
2026-05-06 01:25 43.25702 -78.53641 24306 ft 474 kts 115°
2026-05-06 01:25 43.24908 -78.49246 24608 ft 484 kts 105°
2026-05-06 01:26 43.24401 -78.44665 24973 ft 488 kts 103°
2026-05-06 01:26 43.23964 -78.40028 25284 ft 491 kts 102°
2026-05-06 01:26 43.23547 -78.35360 25583 ft 494 kts 102°
2026-05-06 01:26 43.23133 -78.30665 25898 ft 497 kts 102°
2026-05-06 01:27 43.22716 -78.25934 26146 ft 501 kts 102°
2026-05-06 01:27 43.22296 -78.21180 26451 ft 503 kts 102°
2026-05-06 01:27 43.21872 -78.16396 26738 ft 505 kts 102°
2026-05-06 01:27 43.21445 -78.11603 27016 ft 508 kts 102°
2026-05-06 01:28 43.21020 -78.06847 27284 ft 510 kts 102°
2026-05-06 01:28 43.20585 -78.02009 27544 ft 512 kts 102°
2026-05-06 01:28 43.20147 -77.97157 27814 ft 514 kts 102°
2026-05-06 01:28 43.19705 -77.92279 28176 ft 513 kts 102°
2026-05-06 01:29 43.19263 -77.87422 28581 ft 512 kts 102°
2026-05-06 01:29 43.18820 -77.82576 28902 ft 513 kts 102°
2026-05-06 01:29 43.18373 -77.77722 29228 ft 513 kts 102°
2026-05-06 01:29 43.17925 -77.72878 29548 ft 513 kts 102°
2026-05-06 01:30 43.17474 -77.68024 29871 ft 513 kts 102°
2026-05-06 01:30 43.17027 -77.63228 30144 ft 513 kts 102°
2026-05-06 01:30 43.16572 -77.58381 30393 ft 513 kts 101°
2026-05-06 01:30 43.16115 -77.53530 30699 ft 511 kts 101°
2026-05-06 01:31 43.15659 -77.48701 30970 ft 511 kts 101°
2026-05-06 01:31 43.15200 -77.43875 31206 ft 511 kts 101°
2026-05-06 01:31 43.14739 -77.39056 31448 ft 511 kts 101°
2026-05-06 01:31 43.14276 -77.34222 31681 ft 511 kts 101°
2026-05-06 01:32 43.13811 -77.29400 31905 ft 511 kts 101°
2026-05-06 01:32 43.13343 -77.24567 32134 ft 511 kts 101°
2026-05-06 01:32 43.12880 -77.19802 32361 ft 510 kts 101°
2026-05-06 01:32 43.12411 -77.14999 32634 ft 508 kts 101°
2026-05-06 01:33 43.11940 -77.10195 32836 ft 509 kts 101°
2026-05-06 01:33 43.11466 -77.05393 32909 ft 511 kts 101°
2026-05-06 01:33 43.10511 -76.95759 32912 ft 509 kts 101°
2026-05-06 01:34 43.09549 -76.86150 32885 ft 509 kts 101°
2026-05-06 01:34 43.08582 -76.76568 32894 ft 507 kts 101°
2026-05-06 01:35 43.07610 -76.67020 32905 ft 507 kts 101°
2026-05-06 01:35 43.06630 -76.57473 32904 ft 507 kts 101°
2026-05-06 01:36 43.05647 -76.47975 32897 ft 507 kts 101°
2026-05-06 01:36 43.04653 -76.38450 32895 ft 506 kts 101°
2026-05-06 01:37 43.03651 -76.28936 32903 ft 506 kts 101°
2026-05-06 01:37 43.02642 -76.19426 32908 ft 505 kts 101°
2026-05-06 01:38 43.01631 -76.09971 32903 ft 505 kts 101°
2026-05-06 01:38 43.00610 -76.00502 32899 ft 503 kts 101°
2026-05-06 01:39 42.99581 -75.91041 32875 ft 503 kts 101°
2026-05-06 01:39 42.98545 -75.81582 32876 ft 503 kts 101°
2026-05-06 01:40 42.97503 -75.72145 32872 ft 501 kts 101°
2026-05-06 01:40 42.96464 -75.62801 32873 ft 499 kts 101°
2026-05-06 01:41 42.94483 -75.45192 32870 ft 499 kts 102°
2026-05-06 01:42 42.93419 -75.35836 32868 ft 497 kts 101°
2026-05-06 01:42 42.92349 -75.26501 32862 ft 496 kts 102°
2026-05-06 01:43 42.91277 -75.17208 32852 ft 496 kts 102°
2026-05-06 01:43 42.90197 -75.07919 32848 ft 496 kts 102°
2026-05-06 01:44 42.89114 -74.98673 32837 ft 496 kts 102°
2026-05-06 01:44 42.88018 -74.89387 32844 ft 496 kts 102°
2026-05-06 01:45 42.86913 -74.80082 32835 ft 496 kts 102°
2026-05-06 01:45 42.85802 -74.70799 32831 ft 496 kts 102°
2026-05-06 01:46 42.84684 -74.61524 32831 ft 496 kts 102°
2026-05-06 01:46 42.83556 -74.52231 32821 ft 496 kts 102°
2026-05-06 01:47 42.82429 -74.43006 32825 ft 496 kts 102°
2026-05-06 01:47 42.81287 -74.33728 32823 ft 496 kts 102°
2026-05-06 01:48 42.80137 -74.24450 32834 ft 497 kts 102°
2026-05-06 01:48 42.78978 -74.15161 32815 ft 497 kts 102°
2026-05-06 01:49 42.78399 -74.10539 32487 ft 492 kts 102°
2026-05-06 01:49 42.77835 -74.06044 32207 ft 482 kts 102°
2026-05-06 01:49 42.77274 -74.01590 31879 ft 473 kts 103°
2026-05-06 01:49 42.76718 -73.97197 31471 ft 467 kts 103°
2026-05-06 01:50 42.76168 -73.92867 31041 ft 461 kts 103°
2026-05-06 01:50 42.75622 -73.88590 30577 ft 457 kts 103°
2026-05-06 01:50 42.75080 -73.84346 30121 ft 453 kts 103°
2026-05-06 01:50 42.74623 -73.80113 29605 ft 452 kts 95°
2026-05-06 01:51 42.74576 -73.75849 29088 ft 449 kts 93°
2026-05-06 01:51 42.74566 -73.71623 28624 ft 445 kts 93°
2026-05-06 01:51 42.74564 -73.67470 28171 ft 440 kts 93°
2026-05-06 01:51 42.74553 -73.63316 27710 ft 435 kts 94°
2026-05-06 01:52 42.74533 -73.59225 27286 ft 430 kts 94°
2026-05-06 01:52 42.74508 -73.55178 26852 ft 425 kts 94°
2026-05-06 01:52 42.74478 -73.51175 26414 ft 421 kts 94°
2026-05-06 01:52 42.74446 -73.47206 26024 ft 417 kts 95°
2026-05-06 01:53 42.74412 -73.43286 25632 ft 413 kts 95°
2026-05-06 01:53 42.74377 -73.39403 25224 ft 409 kts 95°
2026-05-06 01:53 42.74341 -73.35556 24830 ft 404 kts 95°
2026-05-06 01:53 42.74303 -73.31776 24432 ft 401 kts 95°
2026-05-06 01:54 42.74264 -73.28008 24082 ft 396 kts 95°
2026-05-06 01:54 42.74225 -73.24287 23970 ft 392 kts 95°
2026-05-06 01:54 42.74184 -73.20566 23955 ft 393 kts 95°
2026-05-06 01:54 42.74142 -73.16837 23953 ft 396 kts 95°
2026-05-06 01:55 42.74100 -73.13023 23949 ft 411 kts 94°
2026-05-06 01:55 42.73869 -73.09105 23938 ft 420 kts 103°
2026-05-06 01:55 42.73410 -73.05114 23942 ft 432 kts 104°
2026-05-06 01:55 42.72922 -73.01059 23941 ft 435 kts 104°
2026-05-06 01:56 42.72434 -72.96990 23943 ft 435 kts 103°
2026-05-06 01:56 42.71953 -72.92931 23939 ft 435 kts 103°
2026-05-06 01:56 42.71475 -72.88870 23941 ft 434 kts 103°
2026-05-06 01:56 42.71000 -72.84822 23938 ft 434 kts 103°
2026-05-06 01:57 42.70530 -72.80819 23934 ft 434 kts 103°
2026-05-06 01:57 42.70053 -72.76770 23949 ft 433 kts 103°
2026-05-06 01:57 42.69575 -72.72716 23793 ft 432 kts 103°
2026-05-06 01:57 42.69099 -72.68683 23238 ft 432 kts 103°
2026-05-06 01:58 42.68622 -72.64655 22708 ft 427 kts 103°
2026-05-06 01:58 42.68149 -72.60707 22169 ft 424 kts 103°
2026-05-06 01:58 42.67671 -72.56764 21647 ft 420 kts 102°
2026-05-06 01:58 42.67198 -72.52869 21185 ft 416 kts 102°
2026-05-06 01:59 42.66734 -72.49059 20995 ft 413 kts 103°
2026-05-06 01:59 42.66256 -72.45152 20984 ft 414 kts 103°
2026-05-06 01:59 42.65788 -72.41340 20983 ft 415 kts 103°
2026-05-06 01:59 42.65307 -72.37426 20983 ft 415 kts 103°
2026-05-06 02:00 42.64839 -72.33618 20993 ft 415 kts 103°
2026-05-06 02:00 42.64377 -72.29756 20599 ft 413 kts 102°
2026-05-06 02:00 42.63929 -72.25903 20034 ft 412 kts 102°
2026-05-06 02:00 42.63486 -72.22083 19588 ft 407 kts 102°
2026-05-06 02:01 42.63048 -72.18313 19084 ft 400 kts 102°
2026-05-06 02:01 42.62618 -72.14608 18320 ft 395 kts 102°
2026-05-06 02:01 42.62189 -72.10939 17523 ft 391 kts 102°
2026-05-06 02:01 42.61760 -72.07297 17085 ft 391 kts 102°
2026-05-06 02:02 42.61327 -72.03661 16479 ft 387 kts 102°
2026-05-06 02:02 42.60887 -72.00072 15596 ft 385 kts 102°
2026-05-06 02:02 42.60450 -71.96539 14817 ft 380 kts 102°
2026-05-06 02:02 42.60014 -71.93026 14268 ft 376 kts 103°
2026-05-06 02:03 42.59577 -71.89525 14027 ft 377 kts 102°
2026-05-06 02:03 42.59139 -71.86017 13879 ft 373 kts 102°
2026-05-06 02:03 42.58700 -71.82569 13163 ft 368 kts 103°
2026-05-06 02:03 42.58202 -71.79211 12447 ft 360 kts 105°
2026-05-06 02:04 42.57684 -71.75910 11704 ft 355 kts 105°
2026-05-06 02:04 42.57168 -71.72655 11199 ft 352 kts 105°
2026-05-06 02:04 42.56652 -71.69409 11026 ft 352 kts 106°
2026-05-06 02:04 42.56136 -71.66168 10996 ft 352 kts 106°
2026-05-06 02:05 42.55620 -71.62921 10988 ft 351 kts 106°
2026-05-06 02:05 42.55098 -71.59702 10538 ft 348 kts 108°
2026-05-06 02:05 42.54487 -71.56540 9901 ft 345 kts 110°
2026-05-06 02:05 42.53852 -71.53462 9249 ft 341 kts 110°
2026-05-06 02:06 42.53212 -71.50387 8589 ft 337 kts 110°
2026-05-06 02:06 42.52576 -71.47339 8136 ft 334 kts 110°
2026-05-06 02:06 42.51961 -71.44374 7980 ft 320 kts 110°
2026-05-06 02:06 42.51367 -71.41516 7695 ft 312 kts 111°
2026-05-06 02:07 42.50779 -71.38702 7285 ft 309 kts 111°
2026-05-06 02:07 42.50202 -71.35900 6890 ft 307 kts 110°
2026-05-06 02:07 42.49641 -71.33110 6490 ft 305 kts 110°
2026-05-06 02:07 42.49088 -71.30338 6116 ft 303 kts 111°
2026-05-06 02:08 42.48534 -71.27576 6007 ft 304 kts 110°
2026-05-06 02:08 42.47986 -71.24844 5996 ft 305 kts 110°
2026-05-06 02:08 42.47428 -71.22065 5994 ft 304 kts 111°
2026-05-06 02:08 42.46874 -71.19297 5999 ft 304 kts 111°
2026-05-06 02:09 42.46311 -71.16529 6002 ft 306 kts 109°
2026-05-06 02:09 42.46233 -71.13723 6002 ft 298 kts 77°
2026-05-06 02:09 42.47063 -71.11268 5959 ft 280 kts 58°
2026-05-06 02:09 42.48107 -71.09025 5545 ft 278 kts 57°
2026-05-06 02:10 42.49136 -71.06836 5059 ft 279 kts 51°
2026-05-06 02:10 42.50609 -71.05275 4653 ft 264 kts 17°
2026-05-06 02:10 42.52304 -71.04445 4298 ft 256 kts 11°
2026-05-06 02:10 42.53992 -71.03725 3948 ft 253 kts 11°
2026-05-06 02:11 42.55644 -71.02995 3722 ft 244 kts 11°
2026-05-06 02:11 42.57222 -71.02264 3519 ft 235 kts 11°
2026-05-06 02:11 42.58753 -71.01524 3177 ft 232 kts 13°
2026-05-06 02:11 42.60225 -71.00786 2958 ft 224 kts 13°
2026-05-06 02:12 42.61683 -71.00041 2982 ft 225 kts 14°
2026-05-06 02:12 42.62979 -70.98804 3009 ft 232 kts 50°
2026-05-06 02:12 42.63602 -70.96832 3002 ft 226 kts 86°
2026-05-06 02:12 42.63781 -70.94712 2996 ft 225 kts 87°
2026-05-06 02:13 42.63694 -70.92649 2988 ft 213 kts 117°
2026-05-06 02:13 42.62951 -70.91041 2987 ft 191 kts 153°
2026-05-06 02:13 42.61824 -70.90391 3006 ft 166 kts 178°
2026-05-06 02:13 42.60753 -70.90135 3016 ft 145 kts 183°
2026-05-06 02:14 42.59791 -70.89965 3004 ft 140 kts 188°
2026-05-06 02:14 42.58871 -70.89979 2988 ft 125 kts 199°
2026-05-06 02:14 42.58043 -70.90179 3003 ft 118 kts 205°
2026-05-06 02:14 42.57269 -70.90466 2994 ft 114 kts 208°
2026-05-06 02:15 42.56687 -70.90724 2999 ft 114 kts 208°
2026-05-06 02:15 42.55940 -70.91090 2997 ft 114 kts 209°
2026-05-06 02:15 42.55190 -70.91456 2994 ft 115 kts 208°
2026-05-06 02:15 42.54417 -70.91829 2999 ft 122 kts 209°
2026-05-06 02:16 42.53624 -70.92207 2992 ft 119 kts 209°
2026-05-06 02:16 42.52850 -70.92573 3001 ft 117 kts 210°
2026-05-06 02:16 42.52082 -70.92942 3000 ft 117 kts 210°
2026-05-06 02:16 42.51320 -70.93313 2887 ft 116 kts 209°
2026-05-06 02:17 42.50563 -70.93681 2741 ft 114 kts 210°
2026-05-06 02:17 42.49830 -70.94039 2588 ft 113 kts 210°
2026-05-06 02:17 42.49096 -70.94397 2435 ft 110 kts 210°
2026-05-06 02:17 42.48392 -70.94738 2295 ft 106 kts 210°
2026-05-06 02:18 42.47702 -70.95074 2146 ft 105 kts 209°
2026-05-06 02:18 42.47010 -70.95412 2027 ft 107 kts 208°
2026-05-06 02:18 42.46307 -70.95753 1882 ft 107 kts 208°
2026-05-06 02:18 42.45604 -70.96093 1737 ft 106 kts 207°
2026-05-06 02:19 42.44911 -70.96430 1599 ft 106 kts 207°
2026-05-06 02:19 42.44207 -70.96771 1456 ft 108 kts 207°
2026-05-06 02:19 42.43506 -70.97140 1262 ft 108 kts 208°
2026-05-06 02:19 42.42789 -70.97514 1163 ft 114 kts 202°
2026-05-06 02:20 42.41260 -70.98196 872 ft 121 kts 203°
2026-05-06 02:20 42.40456 -70.98604 751 ft 125 kts 200°
2026-05-06 02:20 42.39622 -70.98985 571 ft 127 kts 202°
2026-05-06 02:21 42.38805 -70.99410 365 ft 125 kts 201°
2026-05-06 02:21 42.37977 -70.99790 201 ft 126 kts 202°
2026-05-06 02:21 42.37164 -71.00186 41 ft 120 kts 203°
2026-05-06 02:21 42.36491 -71.00511 33 ft 79 kts 199°
2026-05-06 02:22 42.36147 -71.00677 29 ft 27 kts 200°
2026-05-06 02:22 42.36013 -71.00765 26 ft 20 kts 224°
2026-05-06 02:22 42.35924 -71.00901 24 ft 19 kts 230°
2026-05-06 02:22 42.35846 -71.01033 29 ft 16 kts 240°
2026-05-06 02:23 42.35837 -71.01164 27 ft 13 kts 277°
2026-05-06 02:23 42.35848 -71.01278 30 ft 11 kts 277°
2026-05-06 02:23 42.35859 -71.01382 31 ft 13 kts 278°
2026-05-06 02:23 42.35877 -71.01504 32 ft 13 kts 282°
2026-05-06 02:24 42.35897 -71.01613 34 ft 8 kts 304°
2026-05-06 02:24 42.35954 -71.01617 33 ft 13 kts 19°
2026-05-06 02:24 42.36063 -71.01562 31 ft 18 kts 20°
2026-05-06 02:24 42.36182 -71.01504 30 ft 19 kts 19°
2026-05-06 02:25 42.36312 -71.01441 26 ft 17 kts 17°
2026-05-06 02:25 42.36366 -71.01475 26 ft 6 kts 262°
2026-05-06 02:25 42.36362 -71.01518 29 ft 5 kts 260°
2026-05-06 02:25 42.36355 -71.01561 27 ft 0 kts 256°